Wind_Speed
2 2 2 2 3 3 2 4 6 7 7 8 8 7 6 5 5 4 4 3 2 1 0 0 1 1 1 1 2 2 2 1 1 1 1 1 1 1 1 1 1 1 1
2 3 3 3 3 4 5 6 6 6 6 7 7 6 6 4 4 3 3 2 2 1 1 1 1 1 1 1 1 1 2 2 1 1 0 0 1 0 1 1 1 0 1
3 3 4 4 4 4 5 4 4 4 5 5 5 5 5 4 3 3 3 2 2 1 2 2 2 2 1 1 0 1 0 0 1 1 1 1 1 2 1 1 1 0 0
4 4 4 4 4 4 4 4 4 4 4 3 4 4 4 4 3 3 3 2 2 2 2 2 2 2 1 1 1 0 0 1 1 1 1 2 2 2 2 1 1 1 1
4 4 4 5 5 5 4 4 4 3 2 1 1 3 4 4 3 3 3 2 2 2 2 2 2 3 2 1 0 1 1 1 1 1 1 1 2 2 2 2 2 2 2
4 4 4 4 4 4 4 3 3 2 2 2 2 2 3 3 3 2 2 1 1 2 2 2 3 3 3 1 1 1 1 1 2 2 2 2 3 3 3 3 3 3 3
4 4 4 4 4 4 4 3 3 3 2 2 2 2 2 2 1 1 0 0 1 2 2 2 2 3 3 2 2 2 2 2 3 3 3 3 3 4 4 4 4 4 3
4 4 4 4 3 3 3 3 3 3 3 2 2 2 2 1 1 1 1 1 2 2 2 2 3 3 3 3 3 3 3 3 3 3 3 3 4 4 5 5 5 5 4
4 4 3 3 2 2 2 2 2 2 2 1 1 1 1 1 0 1 1 2 2 3 3 3 3 3 4 4 4 4 4 4 4 4 4 4 4 5 5 5 5 5 5
3 3 3 2 2 2 1 1 1 1 1 1 1 0 0 1 1 1 2 2 2 3 3 4 4 4 5 5 5 5 5 5 5 5 5 5 6 6 5 5 6 6 7
3 3 3 2 2 1 1 0 1 1 2 1 1 2 2 2 1 2 2 2 3 3 3 3 4 4 5 5 5 5 6 6 7 7 7 6 6 6 6 7 7 8 8
4 3 3 3 2 2 2 1 2 2 2 2 3 3 3 2 2 2 3 3 3 3 4 4 4 4 5 5 6 7 7 8 7 7 7 7 6 7 7 8 8 8 8
4 4 3 3 3 2 2 2 3 3 3 3 3 3 3 3 3 4 4 3 3 3 4 5 5 5 6 6 7 8 8 7 8 7 6 6 7 8 8 9 9 9 9
4 4 4 4 4 3 3 3 3 4 4 3 3 4 3 4 4 4 5 5 5 4 4 5 5 5 6 6 7 8 8 9 9 8 7 8 8 8 8 9 9 9 10
4 4 4 4 4 4 4 4 4 4 4 4 4 4 4 5 5 5 5 5 6 6 5 6 7 7 7 7 8 9 9 10 10 8 8 8 8 8 8 9 10 10 10
5 5 5 5 5 4 4 4 4 5 4 4 5 5 5 5 5 5 6 6 6 7 7 7 7 8 8 8 9 9 9 9 10 9 9 9 9 9 10 10 11 11 11
5 5 6 6 5 5 5 5 6 6 6 5 5 6 6 6 5 5 6 7 7 8 8 8 8 9 9 9 9 10 9 9 9 9 9 9 10 10 10 11 12 12 12
6 6 6 6 6 6 6 6 6 6 6 6 6 7 7 7 7 7 7 8 8 9 9 9 9 10 10 10 10 10 10 10 10 10 10 10 10 11 11 11 12 12 12
6 6 7 6 7 7 6 6 6 7 7 7 8 8 8 8 8 8 8 9 10 10 10 10 10 11 11 11 11 11 11 11 11 12 12 12 12 12 11 12 12 12 13
7 7 7 7 7 7 7 7 7 8 8 9 9 9 9 9 9 10 10 11 11 11 12 12 12 12 12 12 13 13 13 13 13 14 14 14 14 13 12 12 12 13 13
8 7 7 7 8 8 8 8 8 9 9 9 10 10 10 10 11 12 12 12 12 12 12 13 13 13 13 13 14 14 14 15 15 15 16 16 15 14 14 14 14 14 14
8 8 8 9 9 9 10 10 11 11 11 10 11 11 11 11 11 12 12 12 13 13 13 14 14 14 14 15 15 15 15 15 15 16 17 17 16 15 16 15 15 15 15
9 9 9 10 11 10 11 12 12 12 12 12 12 12 12 12 12 12 13 13 14 15 15 16 15 16 16 16 16 16 17 17 17 17 17 17 16 16 16 17 16 16 16
11 10 10 11 12 12 12 13 13 13 13 14 13 13 13 13 13 14 14 15 15 16 17 17 17 17 17 17 18 18 18 18 18 18 17 17 17 17 18 18 18 18 18
12 11 11 12 13 13 14 14 14 14 15 15 15 15 15 15 14 15 16 16 16 17 18 18 18 18 18 19 20 20 19 19 19 19 18 18 18 19 19 19 20 20 21
13 14 13 14 14 15 16 16 15 16 16 16 16 16 16 16 16 17 17 17 18 19 19 19 19 20 20 20 21 22 21 20 20 20 20 19 19 20 21 21 22 22 22
Wind_Direction
59 69 76 77 76 72 95 135 149 156 161 157 161 164 165 169 173 172 166 153 137 112 148 329 335 331 309 228 221 224 211 220 268 252 232 272 334 341 1 26 27 52 67
66 73 82 80 86 90 100 120 138 150 164 166 166 164 163 159 158 156 148 132 107 82 62 45 18 354 339 268 251 217 212 221 213 201 204 306 323 286 309 332 28 19 53
57 74 76 79 84 93 104 118 136 144 159 169 166 165 169 160 145 142 138 127 102 81 56 47 27 8 354 321 318 135 93 194 203 217 255 279 281 260 267 266 324 278 272
65 74 72 76 81 90 98 108 119 131 151 179 186 170 158 156 141 126 117 103 80 67 51 44 32 19 15 347 337 336 313 315 218 247 259 267 301 285 276 290 307 299 305
71 74 72 74 88 93 96 105 117 117 131 175 200 175 163 161 155 137 127 114 81 68 51 36 29 28 19 354 329 317 308 309 316 292 293 307 328 322 302 300 298 310 301
68 69 69 75 91 86 87 97 93 89 82 51 66 143 160 156 153 140 131 109 67 47 39 29 20 22 21 10 354 330 313 322 330 321 291 305 321 320 307 303 291 292 295
69 68 68 75 84 91 86 84 73 72 66 61 95 112 132 120 135 151 140 14 27 20 16 16 9 12 7 345 335 329 317 321 318 312 306 290 297 303 302 299 296 286 286
69 73 66 66 78 87 87 86 73 65 60 71 115 122 121 109 60 292 302 319 340 6 9 5 357 353 357 352 337 325 319 314 304 308 303 290 294 299 302 299 293 288 280
72 72 67 70 85 99 103 90 66 56 39 47 101 116 133 143 35 16 4 338 329 341 343 344 345 348 349 351 343 331 324 315 304 303 299 303 302 302 302 299 298 300 292
62 65 65 77 93 111 114 68 19 353 1 355 356 310 297 328 344 359 356 347 344 338 340 339 337 341 340 341 340 330 322 315 306 304 300 299 301 303 304 300 299 296 292
45 48 49 65 82 89 80 30 13 359 359 344 331 329 316 309 324 322 326 327 329 330 326 330 328 326 323 330 333 333 322 313 311 307 302 297 299 302 302 297 294 288 288
33 39 40 45 51 38 23 15 5 355 349 330 321 325 335 350 345 319 310 314 323 331 326 319 319 319 317 318 315 311 314 310 304 307 305 296 297 296 296 300 293 286 290
29 27 30 24 20 3 350 336 330 327 326 326 322 322 338 352 345 335 322 317 319 319 320 318 313 305 304 312 312 308 306 308 306 304 308 303 300 297 293 295 294 290 289
24 18 16 10 8 357 336 323 321 315 309 309 314 322 330 343 343 337 333 335 329 323 325 327 322 312 311 312 313 316 308 309 309 310 310 304 299 294 289 290 290 289 289
9 7 1 357 349 340 332 323 322 323 321 316 328 328 327 331 333 336 338 334 330 324 320 320 315 311 311 315 319 319 315 309 306 304 308 307 306 301 293 291 291 291 288
350 349 346 339 334 329 323 317 317 320 327 321 323 324 324 327 330 329 334 341 336 330 326 327 320 319 312 313 312 315 315 310 308 303 303 306 304 299 296 297 297 296 290
341 339 341 340 330 322 316 321 314 316 307 311 316 318 320 318 319 321 323 326 328 328 329 329 325 320 317 315 313 314 312 310 309 309 305 301 300 300 300 297 294 294 297
346 347 345 344 336 326 323 320 319 315 309 304 308 312 313 311 312 316 318 320 320 322 323 321 321 320 320 321 319 315 312 311 309 307 308 304 301 301 300 299 299 298 296
350 348 349 343 340 334 328 324 318 311 308 305 303 304 306 308 310 313 316 316 316 315 314 313 314 316 315 316 315 313 310 309 306 309 309 311 307 305 304 303 301 298 295
352 350 348 344 343 337 332 327 320 317 310 307 305 301 301 304 307 308 309 309 312 313 311 310 312 313 311 310 309 307 306 306 303 304 308 309 309 306 305 301 299 299 296
347 344 342 342 341 340 338 333 327 324 320 313 310 308 302 301 303 304 306 307 309 311 311 309 308 310 309 308 306 306 304 304 305 304 306 307 306 306 303 301 300 299 297
339 334 335 336 336 338 337 333 328 324 321 319 315 310 305 302 302 302 302 303 306 308 309 307 307 307 307 306 305 303 304 301 299 300 301 303 303 303 303 300 300 299 297
329 327 329 332 331 330 332 329 327 324 321 317 316 314 306 303 302 300 300 301 303 305 307 306 306 306 305 306 305 302 302 301 296 297 297 297 296 297 299 302 301 299 298
325 325 323 324 328 327 325 324 323 323 321 320 317 317 311 304 303 301 300 300 301 304 306 306 304 304 304 303 302 301 301 300 298 298 298 297 294 294 295 297 297 297 296
321 320 321 323 325 323 321 319 319 317 319 319 317 314 311 308 306 305 302 300 299 302 304 304 304 302 302 302 300 299 300 298 297 298 298 296 294 293 294 296 296 297 294
318 315 315 320 319 316 315 314 316 316 315 317 316 313 310 307 306 306 304 299 299 299 300 301 303 303 302 301 301 300 299 299 297 298 298 297 296 295 294 295 296 296 297
Height
5883 5882 5882 5881 5880 5878 5874 5873 5877 5880 5882 5884 5885 5886 5887 5887 5887 5888 5889 5889 5889 5889 5889 5889 5889 5889 5889 5889 5890 5890 5890 5891 5891 5891 5891 5891 5891 5891 5892 5892 5892 5892 5893
5884 5883 5883 5882 5882 5880 5878 5878 5880 5882 5883 5885 5885 5886 5887 5887 5888 5888 5889 5889 5890 5890 5890 5890 5890 5889 5889 5889 5890 5890 5890 5890 5890 5891 5891 5891 5891 5892 5892 5892 5892 5892 5893
5885 5884 5884 5883 5883 5882 5882 5882 5883 5884 5885 5886 5886 5887 5888 5888 5889 5889 5890 5890 5890 5890 5890 5890 5890 5890 5890 5890 5890 5890 5890 5890 5890 5891 5891 5891 5891 5891 5891 5892 5892 5892 5892
5886 5886 5885 5885 5885 5884 5884 5884 5884 5885 5886 5886 5887 5887 5888 5888 5889 5890 5890 5891 5891 5891 5891 5890 5890 5890 5890 5890 5890 5890 5890 5890 5890 5891 5891 5891 5891 5891 5891 5892 5892 5892 5892
5887 5887 5886 5886 5886 5886 5886 5886 5886 5886 5887 5887 5887 5888 5889 5889 5890 5890 5891 5891 5891 5891 5891 5891 5891 5891 5890 5890 5890 5890 5890 5890 5890 5890 5890 5891 5891 5891 5891 5891 5892 5892 5892
5888 5888 5887 5887 5887 5887 5887 5887 5887 5888 5888 5888 5888 5888 5889 5890 5890 5891 5891 5891 5892 5892 5891 5891 5891 5891 5891 5890 5890 5890 5890 5890 5890 5890 5891 5891 5891 5891 5891 5891 5891 5891 5892
5889 5889 5889 5888 5888 5888 5888 5888 5889 5889 5889 5889 5889 5890 5890 5891 5891 5891 5892 5892 5892 5892 5892 5892 5891 5891 5891 5890 5890 5890 5889 5889 5890 5890 5890 5890 5890 5890 5891 5891 5891 5891 5891
5890 5890 5890 5890 5890 5890 5890 5890 5890 5890 5890 5890 5890 5891 5891 5892 5892 5892 5892 5892 5892 5892 5892 5892 5892 5891 5891 5890 5890 5890 5889 5889 5890 5889 5890 5890 5890 5890 5890 5890 5890 5891 5890
5892 5891 5891 5891 5891 5891 5891 5891 5891 5891 5891 5891 5891 5892 5892 5892 5892 5892 5892 5892 5892 5892 5892 5892 5892 5891 5891 5890 5890 5890 5889 5889 5889 5889 5889 5889 5889 5889 5889 5889 5889 5889 5889
5892 5892 5892 5892 5892 5892 5892 5892 5892 5892 5892 5892 5892 5892 5892 5892 5892 5892 5893 5893 5893 5892 5892 5892 5891 5891 5891 5890 5890 5890 5889 5889 5889 5888 5888 5888 5888 5888 5888 5888 5888 5888 5888
5893 5893 5893 5893 5892 5892 5893 5893 5893 5893 5893 5892 5893 5893 5893 5893 5893 5893 5893 5892 5892 5892 5892 5891 5891 5891 5890 5889 5889 5889 5889 5889 5888 5887 5887 5887 5887 5887 5887 5887 5887 5887 5886
5895 5894 5894 5893 5893 5893 5893 5893 5893 5893 5893 5893 5893 5893 5893 5893 5893 5893 5892 5892 5892 5891 5891 5890 5890 5890 5889 5889 5889 5889 5888 5887 5887 5887 5886 5886 5886 5886 5885 5885 5885 5885 5885
5896 5895 5895 5894 5894 5894 5894 5894 5894 5894 5894 5894 5893 5893 5893 5893 5893 5892 5892 5891 5891 5890 5890 5889 5888 5888 5888 5888 5888 5887 5886 5886 5886 5886 5885 5885 5885 5884 5884 5884 5883 5883 5883
5896 5896 5896 5895 5895 5895 5895 5895 5895 5894 5894 5894 5894 5894 5894 5893 5893 5892 5892 5891 5891 5890 5889 5889 5888 5887 5887 5887 5886 5886 5885 5885 5884 5884 5883 5883 5883 5883 5882 5882 5881 5881 5881
5897 5897 5896 5896 5896 5895 5895 5895 5895 5895 5894 5894 5894 5894 5894 5893 5893 5892 5891 5891 5890 5890 5889 5888 5888 5886 5886 5886 5885 5884 5884 5883 5883 5882 5882 5882 5881 5881 5880 5880 5879 5879 5879
5898 5897 5897 5897 5896 5896 5895 5895 5895 5895 5895 5895 5894 5894 5893 5893 5893 5892 5891 5890 5890 5889 5888 5887 5887 5885 5885 5884 5884 5883 5882 5881 5881 5881 5880 5880 5879 5879 5878 5878 5877 5877 5876
5898 5898 5897 5897 5896 5896 5895 5895 5895 5895 5895 5894 5894 5893 5893 5893 5892 5892 5891 5890 5890 5888 5887 5886 5886 5885 5884 5883 5882 5882 5881 5880 5879 5878 5878 5878 5877 5877 5876 5875 5875 5874 5873
5898 5898 5897 5897 5896 5896 5896 5895 5895 5895 5894 5894 5893 5893 5892 5892 5892 5891 5890 5890 5889 5888 5887 5886 5885 5884 5883 5882 5881 5880 5879 5878 5878 5877 5876 5875 5875 5874 5873 5873 5872 5871 5870
5898 5898 5897 5896 5896 5895 5895 5895 5894 5894 5894 5893 5892 5892 5892 5891 5891 5890 5890 5889 5887 5887 5886 5884 5883 5882 5881 5880 5879 5878 5877 5877 5876 5875 5874 5873 5872 5871 5870 5870 5869 5868 5867
5899 5898 5897 5896 5896 5895 5895 5894 5894 5893 5893 5892 5891 5891 5890 5890 5890 5889 5888 5887 5886 5885 5884 5883 5882 5880 5879 5878 5877 5876 5875 5874 5873 5873 5871 5870 5869 5868 5867 5867 5866 5865 5864
5899 5898 5897 5896 5896 5895 5895 5894 5894 5893 5892 5891 5891 5890 5889 5889 5888 5887 5886 5885 5884 5883 5882 5880 5879 5878 5877 5876 5875 5873 5873 5872 5870 5869 5868 5867 5866 5865 5864 5863 5862 5861 5860
5899 5898 5897 5896 5895 5894 5894 5893 5893 5892 5891 5890 5890 5889 5888 5887 5886 5885 5884 5883 5882 5881 5879 5878 5876 5875 5874 5873 5872 5870 5869 5869 5867 5866 5865 5864 5862 5862 5860 5859 5858 5857 5856
5898 5897 5896 5896 5895 5894 5893 5892 5891 5890 5889 5889 5888 5887 5886 5885 5884 5883 5882 5881 5880 5879 5877 5875 5874 5872 5871 5870 5868 5867 5866 5865 5864 5863 5861 5860 5859 5858 5857 5855 5854 5853 5852
5897 5896 5895 5895 5894 5893 5892 5891 5890 5889 5888 5887 5885 5884 5883 5882 5881 5880 5879 5878 5877 5875 5874 5872 5870 5869 5868 5866 5864 5863 5862 5860 5859 5859 5858 5856 5855 5853 5852 5851 5850 5848 5848
5896 5895 5893 5892 5892 5891 5890 5889 5888 5887 5886 5884 5883 5881 5880 5879 5878 5877 5876 5875 5873 5872 5870 5868 5866 5865 5863 5862 5861 5859 5857 5856 5854 5854 5853 5851 5850 5849 5848 5847 5845 5844 5843
5895 5894 5892 5891 5890 5889 5888 5887 5885 5884 5883 5881 5880 5879 5877 5876 5875 5873 5872 5871 5869 5868 5866 5864 5863 5861 5859 5858 5856 5855 5853 5851 5850 5848 5847 5845 5845 5844 5842 5841 5840 5839 5837